When you browse on this site, cookies collect data to enhance your experience and personalize the content and advertising you see.
Visit our Privacy Policy to learn more. By continuing to use the site, you agree to this use of cookies and data.

Meteo pe oră la Carevo

Astăzi, 4 Iulie, Sâmbătă

Timp Temperatura Precipitaţii Vânt Presiune Umiditate
00:00 +16°C° 0 mm 1 m/s 742 mmHg 89%
01:00 +15°C° 0 mm 0 m/s 742 mmHg 92%
02:00 +15°C° 0 mm 0 m/s 743 mmHg 95%
03:00 +15°C° 0 mm 0 m/s 742 mmHg 94%
04:00 +15°C° 0 mm 0 m/s 742 mmHg 93%
05:00 +16°C° 0 mm 0 m/s 742 mmHg 91%
06:00 +19°C° 0 mm 1 m/s 743 mmHg 84%
07:00 +21°C° 0 mm 1 m/s 743 mmHg 77%
08:00 +22°C° 0 mm 1 m/s 743 mmHg 69%
09:00 +23°C° 0 mm 1 m/s 743 mmHg 62%
10:00 +24°C° 0 mm 2 m/s 743 mmHg 54%
11:00 +26°C° 0 mm 2 m/s 743 mmHg 46%
12:00 +26°C° 0 mm 2 m/s 743 mmHg 46%
13:00 +26°C° 0 mm 2 m/s 743 mmHg 46%
14:00 +27°C° 0 mm 3 m/s 743 mmHg 46%
15:00 +26°C° 0 mm 3 m/s 743 mmHg 49%
16:00 +26°C° 0 mm 3 m/s 743 mmHg 51%
17:00 +26°C° 0 mm 2 m/s 743 mmHg 54%
18:00 +24°C° 0 mm 2 m/s 743 mmHg 62%
19:00 +21°C° 0 mm 2 m/s 743 mmHg 69%
20:00 +20°C° 0 mm 1 m/s 743 mmHg 77%
21:00 +19°C° 0 mm 1 m/s 743 mmHg 80%
22:00 +18°C° 0 mm 1 m/s 743 mmHg 84%
23:00 +16°C° 0 mm 1 m/s 743 mmHg 87%

Mâine, 5 Iulie, Duminică

Timp Temperatura Precipitaţii Vânt Presiune Umiditate
00:00 +15°C° 0 mm 1 m/s 743 mmHg 88%
01:00 +15°C° 0 mm 1 m/s 743 mmHg 88%
02:00 +15°C° 0 mm 1 m/s 743 mmHg 89%
03:00 +15°C° 0 mm 1 m/s 743 mmHg 88%
04:00 +15°C° 0 mm 1 m/s 743 mmHg 86%
05:00 +16°C° 0 mm 2 m/s 742 mmHg 85%
06:00 +18°C° 0 mm 2 m/s 742 mmHg 77%
07:00 +20°C° 0 mm 3 m/s 742 mmHg 69%
08:00 +22°C° 0 mm 3 m/s 742 mmHg 62%
09:00 +24°C° 0 mm 3 m/s 742 mmHg 58%
10:00 +25°C° 0 mm 4 m/s 742 mmHg 53%
11:00 +26°C° 0 mm 4 m/s 742 mmHg 49%
12:00 +26°C° 0 mm 4 m/s 742 mmHg 49%
13:00 +27°C° 0 mm 4 m/s 741 mmHg 49%
14:00 +27°C° 0 mm 4 m/s 741 mmHg 49%
15:00 +27°C° 0.1 mm 4 m/s 741 mmHg 53%
16:00 +26°C° 0.1 mm 4 m/s 741 mmHg 57%
17:00 +26°C° 0.1 mm 4 m/s 740 mmHg 61%
18:00 +24°C° 0.2 mm 3 m/s 740 mmHg 71%
19:00 +21°C° 0.2 mm 3 m/s 740 mmHg 81%
20:00 +20°C° 0.2 mm 2 m/s 740 mmHg 90%
21:00 +19°C° 0 mm 2 m/s 740 mmHg 93%
22:00 +18°C° 0 mm 2 m/s 740 mmHg 95%
23:00 +18°C° 0 mm 2 m/s 740 mmHg 97%

Poimâine, 6 Iulie, Luni

Timp Temperatura Precipitaţii Vânt Presiune Umiditate
00:00 +17°C° 0 mm 3 m/s 740 mmHg 97%
01:00 +17°C° 0 mm 3 m/s 739 mmHg 98%
02:00 +17°C° 0 mm 3 m/s 739 mmHg 98%
03:00 +18°C° 0 mm 3 m/s 739 mmHg 97%
04:00 +18°C° 0 mm 3 m/s 739 mmHg 97%
05:00 +18°C° 0 mm 3 m/s 739 mmHg 96%
06:00 +19°C° 0 mm 3 m/s 739 mmHg 89%
07:00 +21°C° 0 mm 4 m/s 739 mmHg 83%
08:00 +23°C° 0 mm 4 m/s 739 mmHg 76%
09:00 +23°C° 0.2 mm 4 m/s 739 mmHg 73%
10:00 +25°C° 0.2 mm 4 m/s 739 mmHg 70%
11:00 +26°C° 0.2 mm 4 m/s 739 mmHg 67%
12:00 +25°C° 0.6 mm 4 m/s 739 mmHg 74%
13:00 +23°C° 0.6 mm 4 m/s 739 mmHg 81%
14:00 +24°C° 0.6 mm 3 m/s 738 mmHg 88%
15:00 +22°C° 0.6 mm 3 m/s 738 mmHg 89%
16:00 +23°C° 0.6 mm 2 m/s 738 mmHg 90%
17:00 +23°C° 0.6 mm 2 m/s 738 mmHg 92%
18:00 +21°C° 0.1 mm 2 m/s 738 mmHg 93%
19:00 +20°C° 0.1 mm 2 m/s 738 mmHg 94%
20:00 +21°C° 0.1 mm 1 m/s 738 mmHg 96%
21:00 +21°C° 0.1 mm 1 m/s 738 mmHg 96%
22:00 +20°C° 0.1 mm 1 m/s 738 mmHg 97%
23:00 +20°C° 0.1 mm 1 m/s 738 mmHg 97%

7 Iulie, Marţi

Timp Temperatura Precipitaţii Vânt Presiune Umiditate
00:00 +20°C° 0.5 mm 1 m/s 738 mmHg 97%
01:00 +20°C° 0.5 mm 1 m/s 738 mmHg 98%
02:00 +20°C° 0.5 mm 1 m/s 738 mmHg 98%
03:00 +19°C° 0.4 mm 1 m/s 738 mmHg 98%
04:00 +19°C° 0.4 mm 1 m/s 738 mmHg 98%
05:00 +19°C° 0.4 mm 1 m/s 738 mmHg 98%
06:00 +19°C° 0.1 mm 1 m/s 738 mmHg 97%
07:00 +17°C° 0.1 mm 2 m/s 738 mmHg 96%
08:00 +17°C° 0.1 mm 2 m/s 738 mmHg 95%
09:00 +17°C° 0.8 mm 2 m/s 739 mmHg 91%
10:00 +18°C° 0.8 mm 2 m/s 739 mmHg 88%
11:00 +19°C° 0.8 mm 1 m/s 739 mmHg 84%
12:00 +19°C° 0.1 mm 1 m/s 739 mmHg 84%
13:00 +19°C° 0.1 mm 1 m/s 739 mmHg 83%
14:00 +19°C° 0.1 mm 1 m/s 739 mmHg 83%
15:00 +20°C° 0 mm 1 m/s 739 mmHg 80%
16:00 +20°C° 0 mm 1 m/s 740 mmHg 76%
17:00 +21°C° 0 mm 1 m/s 740 mmHg 73%
18:00 +20°C° 0 mm 1 m/s 740 mmHg 78%
19:00 +19°C° 0 mm 1 m/s 740 mmHg 83%
20:00 +18°C° 0 mm 1 m/s 740 mmHg 88%
21:00 +16°C° 0 mm 1 m/s 740 mmHg 88%
22:00 +16°C° 0 mm 1 m/s 740 mmHg 88%
23:00 +15°C° 0 mm 1 m/s 740 mmHg 88%

8 Iulie, Miercuri

Timp Temperatura Precipitaţii Vânt Presiune Umiditate
00:00 +15°C° 0.1 mm 1 m/s 740 mmHg 88%
01:00 +15°C° 0.1 mm 2 m/s 740 mmHg 88%
02:00 +15°C° 0.1 mm 2 m/s 740 mmHg 87%
03:00 +15°C° 1.6 mm 2 m/s 740 mmHg 90%
04:00 +13°C° 1.6 mm 3 m/s 739 mmHg 94%
05:00 +12°C° 1.6 mm 3 m/s 739 mmHg 97%
06:00 +12°C° 2 mm 3 m/s 739 mmHg 97%
07:00 +12°C° 2 mm 3 m/s 739 mmHg 97%
08:00 +12°C° 2 mm 3 m/s 738 mmHg 97%
09:00 +12°C° 2.1 mm 3 m/s 738 mmHg 97%
10:00 +12°C° 2.1 mm 3 m/s 738 mmHg 97%
11:00 +12°C° 2.1 mm 3 m/s 738 mmHg 97%
12:00 +12°C° 1.7 mm 3 m/s 738 mmHg 97%
13:00 +12°C° 1.7 mm 3 m/s 738 mmHg 96%
14:00 +12°C° 1.7 mm 3 m/s 738 mmHg 96%
15:00 +14°C° 0.3 mm 2 m/s 738 mmHg 93%
16:00 +15°C° 0.3 mm 1 m/s 738 mmHg 90%
17:00 +15°C° 0.3 mm 0 m/s 738 mmHg 86%
18:00 +15°C° 0.1 mm 1 m/s 738 mmHg 89%
19:00 +15°C° 0.1 mm 1 m/s 739 mmHg 91%
20:00 +14°C° 0.1 mm 1 m/s 739 mmHg 94%
21:00 +13°C° 0 mm 1 m/s 739 mmHg 95%
22:00 +12°C° 0 mm 1 m/s 739 mmHg 95%
23:00 +10°C° 0 mm 2 m/s 739 mmHg 96%

9 Iulie, Joi

Timp Temperatura Precipitaţii Vânt Presiune Umiditate
00:00 +10°C° 0 mm 2 m/s 739 mmHg 97%
01:00 +10°C° 0 mm 2 m/s 739 mmHg 97%
02:00 +9°C° 0 mm 2 m/s 739 mmHg 97%
03:00 +10°C° 0 mm 2 m/s 739 mmHg 97%
04:00 +10°C° 0 mm 2 m/s 739 mmHg 97%
05:00 +10°C° 0 mm 3 m/s 740 mmHg 97%
06:00 +11°C° 0 mm 3 m/s 740 mmHg 91%
07:00 +13°C° 0 mm 3 m/s 740 mmHg 85%
08:00 +14°C° 0 mm 3 m/s 740 mmHg 78%
09:00 +17°C° 0 mm 3 m/s 740 mmHg 69%
10:00 +18°C° 0 mm 3 m/s 740 mmHg 60%
11:00 +20°C° 0 mm 3 m/s 740 mmHg 51%
12:00 +20°C° 0 mm 4 m/s 740 mmHg 49%
13:00 +21°C° 0 mm 4 m/s 740 mmHg 47%
14:00 +21°C° 0 mm 4 m/s 740 mmHg 45%
15:00 +20°C° 0.1 mm 4 m/s 740 mmHg 50%
16:00 +19°C° 0.1 mm 4 m/s 740 mmHg 55%
17:00 +18°C° 0.1 mm 4 m/s 740 mmHg 61%
18:00 +17°C° 0 mm 3 m/s 740 mmHg 67%
19:00 +16°C° 0 mm 3 m/s 740 mmHg 73%
20:00 +15°C° 0 mm 2 m/s 740 mmHg 80%
21:00 +14°C° 0 mm 2 m/s 740 mmHg 86%
22:00 +13°C° 0 mm 2 m/s 741 mmHg 91%
23:00 +12°C° 0 mm 2 m/s 741 mmHg 97%
Arată mai mult